User: anonymous   Login
Location: Unspecified
(0.0000°N, 0.0000°E)
Time: 21:03:12
(UTC+00:00)
Language:

STARLINK-31135 - Orbit

View from above orbital plane
View from above orbital plane
View from above satellite
View from above satellite

Ground track
Ground track

The orbit is defined by the following mean orbital elements,

1 58771U          26145.65401705 +.00000000 +00000-0 +52075-4 0 00000
2 58771  53.1603  14.0885 0001122  60.4274 299.6839 15.30198440    04
Epoch (UTC): 25 May 2026 15:41:47
Eccentricity: 0.0001122
inclination: 53.1603°
perigee height: 474 km
apogee height: 476 km
right ascension of ascending node: 14.0885°
argument of perigee: 60.4274°
revolutions per day: 15.30198440
mean anomaly at epoch: 299.6839°

The dashed part of the orbit path shows where the satellite is in the earth's shadow,  

DLR